Location: Berlin
(42.3812°N, 71.6370°W)
Time: 22:03:07
(UTC+00:00)

Cosmos 2016 Rocket - Pass Details

Date: 15 November 2025
Orbit: 946 x 999 km, 83.0° (Epoch: 11 December)

Event Time Altitude Azimuth Distance (km) Brightness Sun altitude
Rises 08:36:57 0° 355° (N) 3,730 7.1 -33.3°
Reaches altitude 10° 08:39:33 10° 359° (N) 2,775 6.4 -32.9°
Maximum altitude 08:45:51 62° 80° (E) 1,114 4.4 -31.7°
Drops below altitude 10° 08:52:04 10° 160° (SSE) 2,732 6.5 -30.5°
Sets 08:54:35 0° 164° (SSE) 3,669 7.2 -30.1°
